Precipitable_Water
0.64 0.62 0.61 0.60 0.58 0.57 0.55 0.52 0.50 0.50 0.49 0.49 0.50 0.56 0.68 0.84 0.90 0.83 0.74 0.85 1.10 1.64 1.89 1.81 1.71 1.61 1.62 1.41 1.33 1.35 0.96 0.71 0.76 0.77 0.83 1.02 1.00 1.18 1.29 1.15 1.20 1.26 1.22 1.38 1.38
0.64 0.62 0.60 0.58 0.57 0.56 0.55 0.53 0.50 0.49 0.49 0.46 0.46 0.50 0.63 0.79 0.74 0.68 0.79 0.88 1.24 1.69 1.73 1.58 1.49 1.55 1.38 1.30 1.18 1.09 0.81 0.76 0.86 0.82 0.78 0.87 0.93 0.95 0.99 1.01 1.10 1.19 1.32 1.44 1.38
0.63 0.61 0.59 0.56 0.56 0.55 0.54 0.53 0.51 0.48 0.48 0.46 0.43 0.45 0.58 0.75 0.56 0.55 0.83 0.93 1.34 1.74 1.70 1.70 1.66 1.42 1.28 1.24 1.11 1.01 0.80 0.88 0.87 0.90 0.91 0.87 0.90 1.00 0.90 0.89 1.06 1.11 1.19 1.36 1.37
0.63 0.59 0.57 0.55 0.54 0.54 0.53 0.51 0.51 0.48 0.47 0.44 0.42 0.42 0.57 0.61 0.34 0.72 0.91 1.05 1.41 1.64 1.60 1.59 1.49 1.27 1.07 0.96 0.98 0.84 0.92 0.91 0.92 0.96 0.92 0.87 0.98 0.95 1.00 0.91 1.12 1.22 1.29 1.36 1.39
0.62 0.58 0.56 0.54 0.53 0.53 0.53 0.51 0.50 0.48 0.45 0.42 0.41 0.43 0.46 0.33 0.36 0.89 1.04 1.22 1.46 1.47 1.45 1.39 1.33 1.18 0.94 0.89 0.86 0.78 0.78 0.90 0.95 0.96 0.92 0.95 0.92 0.93 0.96 1.04 1.08 1.20 1.28 1.30 1.38
0.60 0.57 0.54 0.53 0.53 0.52 0.52 0.51 0.49 0.45 0.41 0.40 0.40 0.47 0.31 0.19 0.51 0.92 1.08 1.24 1.27 1.37 1.36 1.39 1.22 1.22 1.03 0.88 0.87 0.81 0.80 0.82 0.91 0.88 0.89 0.87 0.91 0.95 1.02 1.11 1.05 1.06 1.18 1.27 1.28
0.58 0.56 0.53 0.52 0.52 0.51 0.52 0.51 0.50 0.45 0.37 0.37 0.41 0.45 0.27 0.22 0.73 0.89 1.13 1.12 1.31 1.36 1.21 1.34 1.29 1.20 1.01 0.85 0.93 0.95 0.80 0.82 0.82 0.87 0.92 1.03 0.88 0.88 1.05 1.11 1.06 0.99 1.09 1.18 1.27
0.55 0.54 0.53 0.52 0.51 0.51 0.51 0.58 0.52 0.45 0.35 0.36 0.46 0.42 0.21 0.34 0.75 0.83 1.06 1.10 1.36 1.36 1.16 1.32 1.29 1.16 1.04 0.97 0.89 0.86 0.92 0.80 0.93 0.98 1.01 1.05 0.85 0.98 1.13 1.11 1.07 1.04 0.95 1.08 1.19
0.53 0.53 0.53 0.51 0.50 0.50 0.53 0.62 0.52 0.36 0.36 0.46 0.42 0.34 0.20 0.47 0.43 0.73 0.92 0.91 1.14 1.24 1.16 1.13 0.97 0.90 0.97 0.84 0.72 0.84 0.77 0.79 0.85 1.02 1.03 1.00 0.89 0.99 1.14 1.12 1.10 1.08 0.96 0.93 1.10
0.53 0.52 0.53 0.51 0.50 0.49 0.55 0.62 0.66 0.60 0.51 0.53 0.46 0.26 0.25 0.23 0.33 0.60 0.91 0.97 1.00 1.02 0.95 0.89 0.76 0.70 0.82 0.78 0.57 0.69 0.76 0.82 0.81 0.95 0.96 0.89 0.88 0.99 1.06 1.09 1.10 1.11 1.05 0.91 0.92
0.52 0.52 0.52 0.52 0.49 0.49 0.54 0.51 0.37 0.37 0.40 0.24 0.25 0.22 0.23 0.33 0.47 0.47 0.73 0.88 0.87 0.79 0.60 0.69 0.56 0.53 0.71 0.78 0.81 0.83 0.80 0.78 0.87 0.95 0.87 0.87 0.88 0.95 1.04 1.03 1.03 1.09 1.07 0.99 0.86
0.52 0.52 0.52 0.51 0.48 0.48 0.53 0.34 0.32 0.32 0.20 0.28 0.33 0.31 0.32 0.35 0.26 0.43 0.60 0.51 0.56 0.48 0.55 0.52 0.46 0.64 0.72 0.78 0.75 0.77 0.76 0.71 0.79 0.89 0.87 0.83 0.82 0.92 0.99 1.01 1.01 1.02 1.04 0.98 0.99
0.53 0.54 0.52 0.51 0.46 0.46 0.39 0.40 0.47 0.42 0.24 0.26 0.25 0.24 0.28 0.31 0.27 0.27 0.47 0.48 0.45 0.47 0.45 0.46 0.53 0.61 0.62 0.67 0.68 0.70 0.69 0.69 0.64 0.77 0.87 0.83 0.75 0.81 0.93 1.05 1.08 1.07 1.08 1.00 0.98
0.54 0.55 0.52 0.50 0.38 0.42 0.38 0.46 0.51 0.49 0.28 0.29 0.34 0.30 0.27 0.31 0.25 0.35 0.40 0.39 0.41 0.41 0.42 0.44 0.53 0.49 0.52 0.53 0.63 0.59 0.73 0.67 0.62 0.64 0.60 0.79 0.59 0.74 0.85 0.92 1.01 1.09 1.04 1.00 0.99
0.55 0.56 0.53 0.51 0.39 0.32 0.45 0.50 0.50 0.39 0.21 0.32 0.30 0.45 0.33 0.23 0.28 0.28 0.34 0.28 0.26 0.33 0.40 0.38 0.35 0.36 0.41 0.46 0.59 0.60 0.71 0.66 0.62 0.54 0.61 0.58 0.59 0.74 0.78 0.78 0.85 0.99 1.10 1.06 1.02
0.57 0.58 0.53 0.44 0.42 0.38 0.47 0.53 0.39 0.20 0.18 0.31 0.33 0.29 0.25 0.24 0.26 0.31 0.27 0.28 0.26 0.23 0.27 0.33 0.39 0.36 0.37 0.46 0.57 0.70 0.65 0.64 0.58 0.55 0.38 0.52 0.56 0.61 0.62 0.66 0.76 0.90 1.07 1.11 1.04
0.61 0.63 0.53 0.44 0.30 0.42 0.51 0.40 0.21 0.14 0.27 0.28 0.29 0.29 0.27 0.22 0.25 0.27 0.24 0.23 0.20 0.20 0.20 0.20 0.20 0.25 0.29 0.37 0.57 0.60 0.53 0.45 0.39 0.43 0.35 0.54 0.53 0.65 0.68 0.68 0.66 0.73 0.91 1.00 1.02
0.67 0.65 0.58 0.50 0.49 0.49 0.45 0.31 0.17 0.19 0.24 0.28 0.31 0.32 0.27 0.28 0.26 0.26 0.26 0.23 0.25 0.24 0.22 0.20 0.17 0.21 0.29 0.28 0.44 0.48 0.49 0.43 0.35 0.34 0.35 0.51 0.40 0.55 0.62 0.62 0.63 0.67 0.74 0.94 1.04
0.69 0.60 0.56 0.49 0.47 0.53 0.35 0.23 0.23 0.23 0.26 0.26 0.30 0.30 0.30 0.30 0.28 0.27 0.24 0.24 0.26 0.24 0.20 0.22 0.20 0.25 0.23 0.31 0.33 0.40 0.44 0.53 0.45 0.41 0.32 0.34 0.37 0.48 0.51 0.54 0.55 0.51 0.59 0.71 0.89
0.63 0.58 0.49 0.56 0.54 0.37 0.30 0.25 0.28 0.31 0.29 0.30 0.26 0.31 0.29 0.31 0.29 0.28 0.25 0.28 0.27 0.29 0.29 0.27 0.22 0.23 0.21 0.22 0.25 0.31 0.48 0.40 0.43 0.32 0.28 0.31 0.30 0.29 0.36 0.43 0.41 0.44 0.49 0.57 0.76
0.64 0.55 0.61 0.68 0.56 0.33 0.23 0.29 0.32 0.36 0.34 0.31 0.31 0.31 0.32 0.31 0.32 0.29 0.27 0.34 0.31 0.29 0.30 0.30 0.26 0.26 0.24 0.20 0.19 0.19 0.21 0.36 0.42 0.44 0.33 0.28 0.27 0.34 0.30 0.33 0.36 0.38 0.45 0.46 0.69
0.58 0.48 0.64 0.66 0.42 0.35 0.30 0.34 0.35 0.35 0.40 0.37 0.36 0.36 0.35 0.34 0.33 0.32 0.31 0.37 0.42 0.39 0.27 0.29 0.26 0.22 0.24 0.24 0.23 0.21 0.20 0.24 0.28 0.33 0.32 0.28 0.26 0.32 0.30 0.29 0.35 0.31 0.38 0.42 0.69
0.49 0.50 0.63 0.58 0.36 0.36 0.37 0.32 0.35 0.36 0.37 0.38 0.38 0.41 0.43 0.40 0.35 0.40 0.42 0.49 0.46 0.43 0.39 0.34 0.26 0.22 0.24 0.24 0.24 0.20 0.20 0.18 0.25 0.31 0.29 0.28 0.26 0.32 0.32 0.32 0.30 0.30 0.30 0.45 0.69
0.42 0.40 0.46 0.50 0.46 0.38 0.36 0.37 0.35 0.40 0.38 0.41 0.41 0.44 0.42 0.40 0.44 0.42 0.43 0.49 0.50 0.49 0.51 0.44 0.31 0.27 0.26 0.32 0.29 0.24 0.20 0.16 0.15 0.21 0.23 0.24 0.26 0.28 0.31 0.33 0.34 0.30 0.33 0.43 0.65
0.35 0.31 0.46 0.37 0.37 0.38 0.37 0.35 0.34 0.34 0.40 0.42 0.39 0.40 0.40 0.38 0.41 0.40 0.45 0.47 0.51 0.52 0.51 0.46 0.34 0.36 0.34 0.37 0.36 0.30 0.24 0.20 0.14 0.15 0.21 0.29 0.27 0.28 0.29 0.34 0.34 0.35 0.38 0.40 0.56
0.35 0.32 0.34 0.38 0.35 0.31 0.31 0.31 0.31 0.33 0.35 0.35 0.36 0.38 0.40 0.40 0.44 0.42 0.44 0.46 0.47 0.52 0.48 0.50 0.38 0.44 0.39 0.40 0.38 0.34 0.35 0.33 0.24 0.19 0.17 0.23 0.26 0.28 0.34 0.42 0.38 0.40 0.36 0.44 0.48
0.51 0.50 0.40 0.33 0.39 0.33 0.32 0.33 0.30 0.30 0.32 0.33 0.32 0.31 0.33 0.39 0.45 0.50 0.52 0.53 0.50 0.46 0.46 0.45 0.42 0.40 0.32 0.40 0.41 0.33 0.35 0.36 0.33 0.33 0.29 0.25 0.26 0.33 0.42 0.44 0.43 0.44 0.41 0.39 0.45
Wind_Speed
12 11 10 10 9 8 7 7 6 6 5 5 4 3 2 2 3 4 5 5 7 10 10 11 9 7 6 5 5 5 5 9 10 10 11 11 9 8 6 9 8 6 9 13 15
12 12 11 11 10 9 9 8 7 7 6 6 5 5 4 3 4 5 6 7 9 11 10 10 8 7 4 4 4 3 7 10 10 12 12 11 9 9 8 9 8 7 10 15 17
13 12 12 11 11 10 10 9 9 8 8 7 7 6 6 5 5 5 7 10 12 11 9 8 7 5 3 4 3 4 7 8 9 10 11 10 9 8 9 7 7 9 14 16 16
14 13 12 12 12 11 11 10 10 10 9 9 8 7 7 7 6 6 9 13 13 10 10 7 6 4 3 5 5 4 5 6 8 8 9 9 9 7 6 7 7 9 15 15 16
14 14 13 13 12 12 11 11 11 11 10 10 10 9 9 10 7 6 11 15 14 11 10 7 5 2 6 6 7 5 8 8 8 8 8 7 7 7 5 6 9 10 13 15 15
14 14 14 13 13 12 12 12 11 11 11 11 11 11 11 11 9 9 13 16 13 12 10 7 2 2 3 4 5 8 10 9 9 8 8 6 5 4 5 6 8 9 11 14 14
15 14 14 14 13 13 12 12 11 11 11 12 12 12 12 11 11 11 15 16 13 13 10 8 3 0 2 5 6 8 11 9 8 7 5 4 3 3 6 6 7 7 9 13 14
15 14 14 13 13 12 12 10 9 9 11 12 12 12 12 13 14 14 15 16 14 12 8 8 6 4 4 3 6 6 5 5 6 6 3 4 4 5 5 6 6 7 8 12 14
15 14 14 13 12 12 10 7 6 7 10 12 12 13 12 13 16 18 17 17 16 14 10 6 6 6 5 7 7 6 3 3 4 5 3 6 0 3 5 6 6 7 8 10 12
15 14 14 13 12 11 9 7 6 7 9 11 12 12 13 13 16 19 18 17 16 16 13 11 8 8 8 8 8 7 5 3 4 4 7 8 9 5 7 8 8 9 9 10 13
15 14 13 12 11 10 8 8 8 9 12 12 11 12 12 12 15 19 20 20 17 17 15 15 12 11 10 8 4 6 4 5 3 2 7 9 10 9 9 10 11 11 12 12 13
15 14 13 12 11 9 8 8 7 8 10 15 16 15 14 13 15 19 22 19 20 20 18 14 16 14 8 9 8 9 7 4 2 4 7 9 10 10 9 12 12 12 13 14 13
15 15 14 13 11 9 9 8 7 8 10 10 14 17 17 16 15 21 25 20 22 22 20 20 15 14 14 13 12 10 9 6 6 5 7 7 10 5 7 10 10 12 13 14 15
15 15 14 13 11 10 9 9 8 8 8 8 11 13 17 16 16 18 25 21 19 22 21 21 18 15 17 16 15 14 6 9 7 6 4 4 5 5 4 7 10 12 13 16 16
16 15 14 11 11 11 10 10 8 8 9 8 9 9 14 17 13 18 22 21 22 21 20 22 18 20 20 18 18 17 9 9 8 8 7 8 5 2 4 5 10 13 15 16 17
16 14 12 11 12 12 12 10 9 10 8 8 8 11 14 17 13 14 19 19 19 21 23 24 18 21 24 22 17 13 13 12 10 9 10 3 6 4 5 2 3 7 13 17 18
15 12 10 11 10 12 12 12 12 12 9 10 10 12 14 15 13 15 18 20 19 19 19 20 22 21 22 21 19 20 16 13 12 11 8 2 7 6 6 4 4 3 8 14 16
12 9 8 11 12 12 13 14 14 9 10 9 11 11 14 15 14 14 16 19 21 19 15 17 17 22 20 25 20 22 21 17 12 13 8 7 7 5 3 5 6 6 6 11 16
11 8 8 8 11 13 14 16 11 10 11 11 12 14 15 15 13 14 15 17 18 19 17 12 16 11 23 22 23 18 21 19 20 17 14 14 11 13 12 5 7 8 8 9 13
10 10 8 10 11 14 16 15 13 12 11 14 14 13 16 19 16 17 15 13 13 17 18 13 11 11 12 18 24 25 18 20 20 20 19 15 14 14 13 13 10 10 11 11 12
11 11 10 11 12 15 17 14 14 13 13 14 14 13 12 14 18 18 16 9 14 14 16 16 13 10 12 18 19 20 26 22 21 20 20 17 15 11 10 13 14 15 13 12 12
12 12 11 12 14 14 16 15 16 14 14 15 15 14 14 13 15 17 15 12 12 13 16 18 12 15 15 14 16 20 24 29 23 24 19 20 19 14 16 17 18 16 15 13 11
11 12 12 13 13 14 15 15 14 15 14 15 15 15 15 15 15 15 14 13 11 14 13 14 14 14 12 13 14 18 21 25 30 26 26 21 16 14 16 17 16 16 13 13 12
10 11 11 12 13 13 14 15 16 14 14 16 16 17 17 18 17 16 16 15 14 12 14 15 17 17 14 8 8 17 18 22 28 26 23 23 22 19 19 17 17 14 13 13 13
10 10 11 11 12 13 15 14 16 16 15 15 16 15 16 18 19 17 16 17 17 15 16 17 20 20 19 16 14 14 16 19 22 27 28 22 20 18 17 18 13 13 13 15 15
11 11 11 12 13 15 15 14 15 14 15 15 16 16 17 18 16 17 17 17 17 18 17 17 18 18 21 19 18 19 19 20 18 20 24 24 22 18 19 11 13 15 15 17 18
11 11 12 12 12 15 14 15 16 16 15 14 16 17 18 17 19 21 22 23 23 21 20 20 20 20 23 19 19 23 22 22 21 21 20 22 19 16 13 12 13 14 13 18 19
Wind_Direction
328 324 321 318 313 309 303 297 293 291 282 264 251 238 223 203 175 165 174 144 138 133 125 126 122 116 101 75 78 87 90 88 97 100 113 124 112 105 96 120 131 143 149 148 149
325 322 319 315 310 303 296 290 285 281 274 258 243 232 222 213 205 205 175 159 147 144 135 137 129 119 79 70 83 84 82 91 97 103 113 122 109 106 104 117 122 129 138 149 152
321 319 316 313 309 301 293 284 279 273 265 251 237 226 218 211 206 179 174 167 158 151 143 137 129 118 61 62 88 94 89 119 110 104 112 118 109 105 105 109 124 136 148 153 156
315 315 313 311 307 302 292 283 275 267 259 244 231 220 211 200 192 185 177 170 164 157 150 139 137 106 57 54 87 108 127 126 124 119 116 118 113 106 99 78 114 133 154 155 157
310 310 309 308 305 300 293 285 274 263 251 237 226 216 207 204 206 184 175 172 168 165 163 152 144 91 51 71 92 98 114 133 132 134 129 121 119 104 118 79 113 129 155 164 165
305 306 306 305 303 298 294 288 273 258 242 228 220 212 211 211 203 187 179 176 180 178 178 175 128 77 63 84 80 101 115 118 132 133 130 131 119 99 120 109 123 133 162 169 170
301 303 304 302 300 297 295 287 273 251 231 220 215 213 216 210 203 193 185 185 185 185 186 189 186 206 53 120 115 121 112 118 131 142 134 144 136 167 130 132 137 143 158 177 178
299 300 301 300 298 297 295 284 270 239 219 212 210 214 220 212 204 194 189 192 192 189 191 205 213 234 193 147 148 142 154 142 146 165 149 192 112 177 158 161 160 158 160 174 181
297 298 299 298 296 295 287 276 255 219 209 205 212 217 216 210 205 200 197 196 198 199 201 202 205 215 191 199 173 189 163 192 165 201 208 215 136 177 188 193 187 182 176 181 186
296 296 296 295 293 290 274 253 234 218 213 216 219 217 216 212 203 201 202 199 197 199 208 216 211 214 206 204 199 191 212 212 241 224 239 241 253 232 225 220 211 201 194 190 190
295 293 293 292 290 283 257 239 235 230 224 225 216 221 201 202 200 204 200 197 202 202 206 205 214 212 207 208 232 211 238 249 250 251 267 256 264 271 226 229 222 213 204 199 197
295 291 288 288 284 268 240 239 242 240 242 230 227 222 214 212 204 202 200 203 205 208 210 206 221 222 224 213 217 219 237 253 263 277 272 278 272 273 234 228 223 215 206 203 198
294 289 285 283 273 244 242 236 238 251 238 223 223 223 215 215 214 205 205 213 211 214 214 222 224 225 222 221 230 233 253 282 307 297 270 286 275 246 239 222 220 219 212 207 202
296 288 282 279 252 239 236 228 245 247 235 209 216 216 212 214 220 208 210 213 219 221 222 228 226 226 226 232 234 249 247 265 274 273 306 274 283 270 208 212 218 216 214 212 207
298 289 278 258 249 235 230 233 236 222 224 202 198 203 200 205 195 211 208 217 223 222 223 224 223 229 233 233 236 244 254 258 259 264 274 232 258 183 228 235 233 230 221 216 212
301 288 271 246 237 235 230 230 220 223 222 197 194 193 189 203 207 196 206 220 226 226 230 239 234 238 238 237 234 231 235 239 246 259 261 236 242 190 169 226 253 229 221 217 216
302 285 256 240 237 228 225 215 222 230 209 197 195 193 195 193 197 196 202 209 213 215 223 228 235 234 232 229 229 228 235 240 236 226 243 210 237 260 211 255 289 273 221 218 215
296 277 254 244 234 225 214 217 229 224 213 202 201 202 201 197 206 205 207 212 217 218 231 226 227 226 222 226 224 227 229 233 233 243 244 220 235 194 219 276 277 278 264 226 225
279 261 256 245 225 218 218 220 229 219 221 216 207 212 209 208 217 208 213 214 211 219 225 222 238 223 226 222 227 217 228 235 256 254 250 253 241 254 259 250 260 270 262 253 237
265 257 256 249 233 222 224 228 223 226 231 221 223 225 214 208 213 210 207 216 218 214 223 225 239 220 210 224 230 235 230 229 233 246 250 249 245 256 262 271 282 268 274 264 253
260 256 258 245 233 226 229 228 224 227 232 227 225 224 224 215 222 215 213 214 219 213 218 223 226 214 217 223 227 224 231 235 247 240 244 251 250 253 263 267 280 284 273 267 253
262 256 259 245 236 235 230 233 232 233 233 230 231 231 229 224 218 216 213 222 217 211 211 218 230 235 231 233 234 240 228 228 232 235 241 256 258 265 275 274 283 274 264 264 251
273 261 255 246 243 232 229 229 235 232 233 232 230 233 232 226 223 221 214 217 219 213 214 207 224 233 234 226 234 238 238 235 233 240 245 251 259 257 269 273 273 273 259 246 236
275 261 253 245 242 242 233 233 230 235 232 233 236 233 229 227 227 220 218 219 221 225 229 227 236 232 238 244 257 223 233 232 235 235 241 247 262 262 267 270 275 258 245 239 231
284 268 260 251 242 239 238 239 234 233 238 237 231 234 233 230 225 225 228 226 223 229 229 234 240 241 247 256 254 250 244 231 235 239 241 251 256 260 259 275 266 268 241 232 227
280 271 260 256 249 242 236 237 237 235 241 234 234 239 238 231 234 228 238 230 231 236 237 235 241 245 247 247 247 249 247 247 242 245 243 247 257 260 261 272 259 260 245 231 224
281 269 261 259 254 245 242 238 237 241 236 235 241 241 235 233 242 242 241 243 242 242 240 242 242 244 246 245 247 249 246 247 246 239 244 241 245 251 249 261 273 274 249 232 225